Regional Weather Roundup
Issued by NWS

Home | Current Version | Previous Version | Text Only | Print | Product List | Glossary Off
Versions: 1 2 3 4 5 6 7 8 9 10 11 12 13 14 15 16 17 18 19 20 21 22 23 24 25 26 27 28 29 30 31 32 33 34 35 36 37 38 39 40 41 42 43 44 45 46 47 48 49 50

000
ASUS43 KOAX 260510
RWRNE

WEATHER ROUNDUP FOR NEBRASKA
NATIONAL WEATHER SERVICE OMAHA NE
1100 PM CST SUN JAN 25 2015

NOTES: SATELLITE DATA IS BEING USED TO AUGMENT CLOUD COVER ABOVE
       12000 FEET.
       "FAIR" INDICATES FEW OR NO CLOUDS BELOW 12,000 FEET WITH NO
       SIGNIFICANT WEATHER AND/OR OBSTRUCTIONS TO VISIBILITY.

  * THESE STATIONS DO NOT REPORT WEATHER SUCH AS RAIN...SNOW OR FOG.

NEZ001>004-019>022-054>056-260600-
NEBRASKA PANHANDLE

CITY           SKY/WX    TMP DP  RH WIND       PRES   REMARKS
SCOTTSBLUFF    CLEAR     33  29  85 N3        30.12R
ALLIANCE       PTCLDY    36  30  79 W13       30.06S WCI  27
CHADRON        CLEAR     45  31  58 W17       30.04S
KIMBALL        CLEAR     41  31  67 W15       30.13S
SIDNEY         CLEAR     41  30  65 W15       30.13S
$$

NEZ057>060-069>072-079>082-260600-
SOUTHWEST NEBRASKA

CITY           SKY/WX    TMP DP  RH WIND       PRES   REMARKS
NORTH PLATTE   MOCLDY    36  26  67 CALM      30.02F
IMPERIAL       CLEAR     39  29  67 NW13      30.07S WCI  31
LEXINGTON      CLOUDY    39  29  68 S8        30.04F WCI  33
MCCOOK         MOCLDY    38  24  57 SW6       30.05F WCI  33
OGALLALA       CLEAR     44  33  65 W15       30.06R
$$

NEZ005>010-023>029-035>040-094-260600-
NORTH CENTRAL NEBRASKA

CITY           SKY/WX    TMP DP  RH WIND       PRES   REMARKS
VALENTINE      CLEAR     32  26  78 W6        29.95F WCI  26
AINSWORTH      CLEAR     36  27  71 SW8       29.95S WCI  29
BROKEN BOW     CLOUDY    34  29  82 CALM      30.01F
O`NEILL        CLOUDY    34  31  91 S6        29.99S WCI  29
ORD            CLOUDY    31  26  82 VRB3      30.01F
THEDFORD       CLEAR     38  31  77 SW5       29.98F WCI  34
$$

NEZ041-046>049-061>064-073>077-083>087-260600-
SOUTH CENTRAL NEBRASKA

CITY           SKY/WX    TMP DP  RH WIND       PRES   REMARKS
GRAND ISLAND   MOCLDY    30  26  85 SW5       30.05F WCI  25
AURORA         MOCLDY    29  26  87 SW3       30.05S
HASTINGS       PTCLDY    29  24  82 SW3       30.05F
HEBRON         PTCLDY    25  22  90 CALM      30.08F
HOLDREGE       CLOUDY    37  27  68 S9        30.05S WCI  30
KEARNEY *      CLOUDY    34  27  75 SW8       30.05F WCI  27
YORK           MOCLDY    28  28 100 S3        30.06S
$$

NEZ011>018-030>034-042>045-260600-
NORTHEAST NEBRASKA

CITY           SKY/WX    TMP DP  RH WIND       PRES   REMARKS
NORFOLK        CLOUDY    33  31  92 SW7       30.02S WCI  27
ALBION         CLOUDY    32  29  88 CALM      30.02S
BLAIR          FOG       31  29  93 S3        30.04F VSB 3/4
COLUMBUS *     CLOUDY    30  25  80 CALM      30.04F
FREMONT        PTCLDY    32  31  96 CALM      30.04F
TEKAMAH        PTCLDY    30  29  96 S7        30.04F WCI  23
WAYNE          CLOUDY    31  30  94 S3        30.03R
$$

NEZ050>053-065>068-078-088>093-260600-
SOUTHEAST NEBRASKA

CITY           SKY/WX    TMP DP  RH WIND       PRES   REMARKS
LINCOLN        CLOUDY    32  29  88 S3        30.08F
OMAHA EPPLEY   PTCLDY    33  30  88 S3        30.06F
BEATRICE       CLOUDY    25  24  96 CALM      30.08S FOG
FALLS CITY     CLOUDY    32  27  81 SE3       30.09F
NEBRASKA CITY  CLOUDY    33  27  78 SE5       30.08S WCI  29
PLATTSMOUTH    PTCLDY    33  30  90 SE6       30.06F WCI  27
$$

NEZ044-045-051>053-067-260600-
OMAHA AREA

CITY           SKY/WX    TMP DP  RH WIND       PRES   REMARKS
OMAHA EPPLEY   PTCLDY    33  30  88 S3        30.06F
BLAIR          FOG       31  29  93 S3        30.04F VSB 3/4
FREMONT        PTCLDY    32  31  96 CALM      30.04F
MILLARD        CLEAR     31  29  92 CALM      30.06F
OFFUTT AFB     PTCLDY    31  29  91 SE6       30.06F WCI  26
PLATTSMOUTH    PTCLDY    33  30  90 SE6       30.06F WCI  27
WAHOO          MOCLDY    31  28  88 SW6       30.06S WCI  25
$$


USA.gov is the U.S. government's official web portal to all federal, state and local government web resources and services.